Location: Gradaro
(45.0833°N, 10.8833°E)
Time: 21:42:07
(UTC+00:00)

NOSS 7 (H) - Pass Details

Date: 29 November 2020
Orbit: 369 x 1788 km, 63.3° (Epoch: 19 January)

Event Time Altitude Azimuth Distance (km) Brightness Sun altitude
Exits shadow 05:02:02 13° 224° (SW) 1,400 6.6 -15.6°
Maximum altitude 05:04:57 70° 308° (NW) 430 4.0 -15.1°
Drops below altitude 10° 05:07:53 10° 34° (NNE) 1,387 7.1 -14.6°
Sets 05:09:48 0° 37° (NE) 2,231 8.2 -14.2°
